Laramie, WY

3:41 PM MST on December 03, 2016 (GMT -0700)
Laramie Regional

Weather History for KLAR - September, 2011

Change the Weather History Date:

Tuesday, September 6, 2011

  Actual Average Record
Temperature  
Mean Temperature 54 °F 57 °F  
Max Temperature 59 °F 73 °F 90 °F (1978)
Min Temperature 49 °F 41 °F 32 °F (1956)
Degree Days  
Heating Degree Days 11 8  
Month to date heating degree days 42 43  
Since 1 July heating degree days 68 215  
Cooling Degree Days 0 0  
Month to date cooling degree days 2 0  
Year to date cooling degree days 126 66  
Growing Degree Days 4 (Base 50)    
Moisture  
Dew Point 42 °F    
Average Humidity 60    
Maximum Humidity 93    
Minimum Humidity 26    
Precipitation  
Precipitation 0.51 in 0.04 in 0.51 in (2011)
Month to date precipitation 0.51 0.22  
Year to date precipitation 8.26 8.37  
Sea Level Pressure  
Sea Level Pressure 30.11 in    
Wind  
Wind Speed 6 mph (SSE)    
Max Wind Speed 13 mph    
Max Gust Speed 15 mph    
Visibility 9 miles    
Events Rain    
T = Trace of Precipitation, MM = Missing Value Source: NWS Daily Summary

Daily Weather History Graph

Daily Weather History Graph

Search for Another Location

Airport or City:

Trip Planner

Search our weather history database for the weather conditions in past years. The results will help you decide how hot, cold, wet, or windy it might be!

Date:

Astronomy

Sep. 06, 2011 Rise Set
Actual Time 6:33 AM MDT 7:27 PM MDT
Civil Twilight 6:05 AM MDT 7:55 PM MDT
Nautical Twilight 5:32 AM MDT 8:28 PM MDT
Astronomical Twilight 4:57 AM MDT 9:03 PM MDT
Moon 4:07 PM MDT (9/6) 12:48 AM MDT (9/6)
Length of Visible Light 13h 49m
Length of Day
12h 53m
Waxing Gibbous, 71% of the Moon is Illuminated
Sep 6
Waxing Gibbous
Sep 12
Full
Sep 20
Last Quarter
Sep 27
New
Oct 3
First Quarter

Hourly Weather History & Observations

Time (MDT) Temp. Dew Point Humidity Pressure Visibility Wind Dir Wind Speed Gust Speed Precip Events Conditions
12:53 AM 52.0 °F 21.0 °F 30% 29.90 in 10.0 mi SSW 4.6 mph - N/A   Mostly Cloudy
1:53 AM 51.1 °F 24.1 °F 35% 29.92 in 10.0 mi South 3.5 mph - N/A   Clear
2:53 AM 52.0 °F 18.0 °F 26% 29.91 in 10.0 mi SE 9.2 mph - N/A   Clear
3:53 AM 53.1 °F 21.0 °F 29% 29.91 in 10.0 mi Calm Calm - N/A   Clear
4:53 AM 54.0 °F 21.9 °F 29% 29.92 in 10.0 mi Calm Calm - N/A   Mostly Cloudy
5:53 AM 54.0 °F 25.0 °F 33% 29.94 in 10.0 mi East 5.8 mph - N/A   Overcast
6:53 AM 55.9 °F 28.0 °F 34% 29.97 in 10.0 mi South 6.9 mph - N/A   Overcast
7:53 AM 53.6 °F 46.4 °F 77% 30.34 in 4.0 mi West 4.6 mph - N/A Rain Rain
8:53 AM 50.0 °F 46.0 °F 86% 30.12 in 5.0 mi NW 3.5 mph - 0.11 in Rain Rain
9:53 AM 50.0 °F 46.9 °F 89% 30.12 in 10.0 mi East 6.9 mph - 0.07 in Rain Light Rain
10:53 AM 52.0 °F 48.9 °F 89% 30.13 in 10.0 mi East 6.9 mph - 0.02 in Rain Light Rain
12:53 PM 54.0 °F 51.1 °F 90% 30.10 in 10.0 mi SE 9.2 mph - 0.06 in Rain Light Rain
1:53 PM 55.9 °F 51.1 °F 84% 30.09 in 10.0 mi SSE 8.1 mph - 0.02 in Rain Light Rain
2:53 PM 57.0 °F 48.9 °F 74% 30.08 in 10.0 mi South 9.2 mph - 0.00 in   Overcast
3:53 PM 59.0 °F 48.9 °F 69% 30.06 in 10.0 mi South 10.4 mph - 0.00 in Rain Light Rain
4:53 PM 55.4 °F 51.8 °F 88% 30.33 in 10.0 mi South 5.8 mph - N/A Rain Light Rain
5:42 PM 53.6 °F 51.8 °F 94% 30.34 in 6.0 mi SE 10.4 mph - 0.02 in Rain Rain
5:53 PM 53.6 °F 51.8 °F 94% 30.34 in 3.0 mi SE 9.2 mph - N/A Rain Rain
6:23 PM 53.6 °F 51.8 °F 94% 30.35 in 8.0 mi SSE 4.6 mph - 0.05 in Rain Light Rain
6:53 PM 53.1 °F 50.0 °F 89% 30.11 in 7.0 mi SSE 6.9 mph - 0.07 in Rain Light Rain
7:53 PM 52.0 °F 48.9 °F 89% 30.13 in 10.0 mi SE 11.5 mph - 0.02 in Rain Light Rain
8:53 PM 53.1 °F 48.9 °F 86% 30.17 in 10.0 mi ESE 4.6 mph - 0.00 in   Overcast
9:53 PM 53.1 °F 48.9 °F 86% 30.18 in 10.0 mi ENE 3.5 mph - N/A   Overcast
10:53 PM 52.0 °F 48.9 °F 89% 30.18 in 10.0 mi Calm Calm - 0.00 in   Overcast
11:53 PM 52.0 °F 48.0 °F 86% 30.17 in 10.0 mi Calm Calm - N/A   Overcast